Flag for India Weather past 2 weeks in Tarn Taran Sahib, Punjab, India

Now
81 °F

Fog.


Feels Like: 87 °F
Forecast: 75 / 97 °F
Wind: No wind

Location: Amritsar Airport

Current Time: Sep 3, 2015 at 3:41:18 AM

Latest Report: Sep 3, 2015 at 2:30 AM


Visibility: 2 mi

Pressure: 29.62 "Hg

Humidity: 89%

Dew point: 77 °F

Location of Tarn Taran SahibLocation

Historic Weather in Tarn Taran Sahib — Graph

°F

Tarn Taran Sahib temperature yesterday

Maximum temperature yesterday: 99 °F (at 2:30 PM)
Minimum temperature yesterday: 81 °F (at 4:00 AM)
Average temperature yesterday: 87 °F

Past Weeks' High & Low Weather Summary

 TemperatureHumidityPressure
High99 °F (Sep 2, 2:30 PM)100% (Aug 19, 2:30 AM)29.71 "Hg (Aug 19, 2:30 AM)
Low75 °F (Aug 21, 5:00 PM)44% (Aug 29, 1:30 PM)29.53 "Hg (Aug 20, 5:00 PM)
Average86 °F80%29.61 "Hg
* Reported Aug 19 1:30 AM — Sep 3 2:00 AM, Tarn Taran Sahib, Weather by CustomWeather, © 2015

Note: Actual official high and low records may vary slightly from our data, if they occured in-between our weather recording intervals... More about our weather records

Advertising

Tarn Taran Sahib weather history for previous 24 hours

 ConditionsComfort  
Time TempWeatherWind HumidityBarometerVisibility
2:00 AM
Thu, Sep 3
81 °FFog.No wind89%29.62 "Hg1 mi
1:30 AM81 °FFog.No wind89%29.65 "Hg1 mi
1:00 AM81 °FFog.No wind89%29.65 "Hg1 mi
12:00 AM84 °FFog.No wind74%29.62 "Hg1 mi
11:30 PM
Wed, Sep 2
84 °FFog.No wind74%29.62 "Hg1 mi
11:00 PM84 °FFog.No wind79%29.62 "Hg1 mi
10:30 PM84 °FFog.No wind79%29.62 "Hg1 mi
10:00 PM84 °FFog.No wind84%29.62 "Hg1 mi
9:30 PM86 °FFog.No wind84%29.62 "Hg1 mi
9:00 PM86 °FFog.No wind89%29.59 "Hg1 mi
8:30 PM86 °FFog.No wind89%29.59 "Hg1 mi
8:00 PM86 °FHaze.No wind84%29.59 "Hg1 mi
7:30 PM86 °FHaze.No wind84%29.56 "Hg1 mi
7:00 PM88 °FHaze.No wind79%29.56 "Hg2 mi
6:30 PM90 °FHaze.No wind71%29.56 "Hg2 mi
6:00 PM90 °FHaze.No wind75%29.56 "Hg2 mi
5:30 PM91 °FHaze.No wind67%29.56 "Hg2 mi
5:00 PM93 °FScattered clouds.2 mph59%29.56 "Hg2 mi
4:30 PM93 °FScattered clouds.2 mph59%29.56 "Hg3 mi
3:30 PM93 °FScattered clouds.8 mph59%29.56 "Hg3 mi
3:00 PM95 °FScattered clouds.1 mph56%29.56 "Hg3 mi
2:30 PM99 °FScattered clouds.No wind47%29.59 "Hg3 mi
2:00 PM95 °FBroken clouds.No wind56%29.59 "Hg3 mi
1:30 PM93 °FBroken clouds.1 mph63%29.59 "Hg3 mi
1:00 PM93 °FBroken clouds.1 mph63%29.62 "Hg3 mi
12:30 PM95 °FBroken clouds.No wind60%29.62 "Hg3 mi
12:00 PM91 °FBroken clouds.1 mph67%29.62 "Hg2 mi
11:30 AM91 °FBroken clouds.No wind67%29.62 "Hg2 mi
11:00 AM93 °FScattered clouds.No wind63%29.62 "Hg2 mi
10:30 AM91 °FHaze.1 mph67%29.62 "Hg2 mi
10:00 AM91 °FHaze.No wind67%29.62 "Hg2 mi
9:00 AM88 °FFog.No wind79%29.62 "Hg1 mi
8:30 AM86 °FFog.No wind84%29.62 "Hg1 mi
8:00 AM84 °FFog.No wind89%29.62 "Hg1 mi
7:30 AM82 °FFog.No wind94%29.62 "Hg1 mi
7:00 AM81 °FFog.No wind100%29.59 "Hg1 mi
6:30 AM81 °FFog.No wind94%29.59 "Hg1 mi
6:00 AM81 °FFog.No wind94%29.59 "Hg1 mi
5:30 AM81 °FFog.No wind94%29.59 "Hg2 mi
5:00 AM81 °FFog.No wind94%29.59 "Hg2 mi
4:30 AM81 °FFog.3 mph94%29.59 "Hg2 mi
4:00 AM81 °FFog.No wind94%29.59 "Hg2 mi
Weather by CustomWeather, © 2015

See weather overviewHow to use our weather pages